This is the latest recevied weather packets stored in our database for station/object KV9E. If no packets are shown the sender has not sent any weather packets the latest 10 day(s).
| Time | Temp. | Humidity | Pressure | Rain* | Wind** | Luminosity | Snow |
|---|---|---|---|---|---|---|---|
| 1788449995 | 30° C | 62% | 1019.2 hPa | 0 mm | - | 53 W/m² | - |
| 1788449691 | 29.44° C | 64% | 1019.2 hPa | 0 mm | - | 52 W/m² | - |
| 1788449387 | 29.44° C | 70% | 1019.2 hPa | 0 mm | - | 82 W/m² | - |
| 1788449082 | 29.44° C | 70% | 1019.1 hPa | 0 mm | - | 70 W/m² | - |
| 1788448778 | 29.44° C | 70% | 1019.3 hPa | 0 mm | - | 76 W/m² | - |
| 1788448472 | 28.89° C | 72% | 1019.3 hPa | 0 mm | - | 51 W/m² | - |
| 1788448162 | 28.89° C | 74% | 1019.1 hPa | 0 mm | - | 49 W/m² | - |
| 1788447856 | 28.89° C | 74% | 1019 hPa | 0 mm | - | 48 W/m² | - |
| 1788447551 | 28.89° C | 72% | 1019.2 hPa | 0 mm | - | 47 W/m² | - |
| 1788447246 | 28.33° C | 76% | 1019.1 hPa | 0 mm | - | 46 W/m² | - |
| 1788446946 | 28.33° C | 76% | 1019.1 hPa | 0 mm | - | 45 W/m² | - |
| 1788446641 | 28.33° C | 80% | 1019 hPa | 0 mm | - | 45 W/m² | - |
| 1788446336 | 28.33° C | 79% | 1018.9 hPa | 0 mm | - | 44 W/m² | - |
| 1788446033 | 28.33° C | 78% | 1019 hPa | 0 mm | - | 43 W/m² | - |
| 1788445733 | 28.33° C | 72% | 1018.8 hPa | 0 mm | - | 50 W/m² | - |
| 1788445429 | 28.33° C | 76% | 1019 hPa | 0 mm | - | 43 W/m² | - |
| 1788445125 | 28.33° C | 75% | 1018.9 hPa | 0 mm | - | 54 W/m² | - |
| 1788444821 | 27.78° C | 78% | 1019 hPa | 0 mm | - | 262 W/m² | - |
| 1788444516 | 27.22° C | 79% | 1019 hPa | 0 mm | - | 149 W/m² | - |
| 1788444211 | 27.78° C | 78% | 1019 hPa | 0 mm | - | 56 W/m² | - |
| 1788443907 | 27.78° C | 76% | 1019 hPa | 0 mm | - | 40 W/m² | - |
| 1788443602 | 27.22° C | 76% | 1018.9 hPa | 0 mm | - | 39 W/m² | - |
| 1788443300 | 27.22° C | 77% | 1019 hPa | 0 mm | - | 60 W/m² | - |
| 1788442991 | 27.78° C | 74% | 1019 hPa | 0 mm | - | 57 W/m² | - |
| 1788442688 | 27.78° C | 74% | 1019 hPa | 0 mm | - | 90 W/m² | - |
* Rain latest hour (hover to see other rain measurements)
** Current wind speed in m/s (hover to see current wind gust speed)